• In Romania
  • List of Countries
  • For 7 days
  • Water Temperature
  • Satellite Maps
  • Weather Map
  • Weather Widgets
  • user-avatar
    Login

    Hourly Weather Bansko

    Today, 25 February, Sunday

    Time Temperature Precipitation Wind Pressure Humidity
    00:00 +2°C° 0.1 mm 2 mps 716 mmHg 84%
    01:00 +2°C° 0.1 mm 2 mps 717 mmHg 84%
    02:00 +1°C° 0 mm 3 mps 717 mmHg 83%
    03:00 0°C° 0.1 mm 3 mps 717 mmHg 83%
    04:00 +1°C° 0.1 mm 2 mps 717 mmHg 82%
    05:00 -1°C° 0.1 mm 2 mps 717 mmHg 82%
    06:00 -1°C° 0.1 mm 2 mps 717 mmHg 81%
    07:00 -1°C° 0.1 mm 2 mps 717 mmHg 79%
    08:00 -1°C° 0 mm 2 mps 717 mmHg 78%
    09:00 +1°C° 0.2 mm 2 mps 717 mmHg 77%
    10:00 +1°C° 0.2 mm 2 mps 718 mmHg 76%
    11:00 +2°C° 0.2 mm 2 mps 718 mmHg 75%
    12:00 +2°C° 0.6 mm 2 mps 718 mmHg 77%
    13:00 +2°C° 0.6 mm 2 mps 717 mmHg 79%
    14:00 +2°C° 0.6 mm 2 mps 717 mmHg 81%
    15:00 +2°C° 0.4 mm 2 mps 717 mmHg 83%
    16:00 +2°C° 0.4 mm 2 mps 717 mmHg 84%
    17:00 +1°C° 0.4 mm 2 mps 717 mmHg 85%
    18:00 +1°C° 0.5 mm 2 mps 717 mmHg 87%
    19:00 -1°C° 0.5 mm 2 mps 717 mmHg 88%
    20:00 -1°C° 0.5 mm 2 mps 717 mmHg 90%
    21:00 -1°C° 0.4 mm 2 mps 716 mmHg 90%
    22:00 -1°C° 0.4 mm 2 mps 716 mmHg 89%
    23:00 -1°C° 0.4 mm 2 mps 716 mmHg 89%

    Tomorrow, 26 February, Monday

    Time Temperature Precipitation Wind Pressure Humidity
    00:00 -2°C° 0.6 mm 2 mps 715 mmHg 90%
    01:00 -2°C° 0.6 mm 2 mps 715 mmHg 90%
    02:00 -2°C° 0.6 mm 3 mps 714 mmHg 90%
    03:00 -2°C° 0.9 mm 3 mps 713 mmHg 91%
    04:00 -2°C° 0.9 mm 3 mps 713 mmHg 91%
    05:00 -2°C° 0.9 mm 3 mps 712 mmHg 91%
    06:00 -4°C° 1.1 mm 3 mps 712 mmHg 91%
    07:00 -4°C° 1.1 mm 3 mps 712 mmHg 91%
    08:00 -4°C° 1.1 mm 3 mps 712 mmHg 91%
    09:00 -3°C° 1.1 mm 4 mps 711 mmHg 91%
    10:00 -3°C° 1.1 mm 4 mps 711 mmHg 91%
    11:00 -3°C° 1.1 mm 4 mps 711 mmHg 90%
    12:00 -3°C° 0.8 mm 4 mps 711 mmHg 90%
    13:00 -3°C° 0.8 mm 4 mps 711 mmHg 89%
    14:00 -3°C° 0.8 mm 4 mps 711 mmHg 88%
    15:00 -2°C° 0.5 mm 3 mps 711 mmHg 89%
    16:00 -4°C° 0.5 mm 3 mps 711 mmHg 89%
    17:00 -4°C° 0.5 mm 3 mps 711 mmHg 89%
    18:00 -5°C° 0.2 mm 3 mps 711 mmHg 89%
    19:00 -4°C° 0.2 mm 2 mps 711 mmHg 89%
    20:00 -5°C° 0.2 mm 2 mps 712 mmHg 90%
    21:00 -6°C° 0.1 mm 2 mps 711 mmHg 89%
    22:00 -6°C° 0.1 mm 2 mps 711 mmHg 89%
    23:00 -7°C° 0.1 mm 2 mps 711 mmHg 89%

    Day after tomorrow, 27 February, Tuesday

    Time Temperature Precipitation Wind Pressure Humidity
    00:00 -7°C° 0.1 mm 2 mps 711 mmHg 89%
    01:00 -7°C° 0.1 mm 2 mps 711 mmHg 90%
    02:00 -6°C° 0.1 mm 1 mps 711 mmHg 91%
    03:00 -4°C° 0.4 mm 1 mps 711 mmHg 91%
    04:00 -4°C° 0.4 mm 1 mps 711 mmHg 92%
    05:00 -4°C° 0.4 mm 1 mps 711 mmHg 92%
    06:00 -4°C° 0.2 mm 1 mps 711 mmHg 91%
    07:00 -3°C° 0.2 mm 1 mps 712 mmHg 90%
    08:00 -3°C° 0.2 mm 1 mps 712 mmHg 89%
    09:00 -2°C° 0.1 mm 1 mps 712 mmHg 88%
    10:00 0°C° 0.1 mm 1 mps 712 mmHg 86%
    11:00 +1°C° 0.1 mm 1 mps 713 mmHg 84%
    12:00 +1°C° 0.1 mm 2 mps 713 mmHg 84%
    13:00 +1°C° 0.1 mm 2 mps 713 mmHg 84%
    14:00 +2°C° 0.1 mm 2 mps 713 mmHg 84%
    15:00 +2°C° 0.1 mm 2 mps 713 mmHg 84%
    16:00 +2°C° 0.1 mm 2 mps 714 mmHg 83%
    17:00 +2°C° 0.1 mm 2 mps 714 mmHg 83%
    18:00 -1°C° 0 mm 2 mps 714 mmHg 84%
    19:00 -1°C° 0 mm 1 mps 715 mmHg 85%
    20:00 -2°C° 0 mm 1 mps 715 mmHg 86%
    21:00 -2°C° 0 mm 1 mps 715 mmHg 86%
    22:00 -2°C° 0 mm 1 mps 716 mmHg 85%
    23:00 -2°C° 0 mm 1 mps 716 mmHg 85%

    28 February, Wednesday

    Time Temperature Precipitation Wind Pressure Humidity
    00:00 -1°C° 0.1 mm 1 mps 716 mmHg 86%
    01:00 -1°C° 0.1 mm 1 mps 716 mmHg 86%
    02:00 -1°C° 0.1 mm 1 mps 716 mmHg 87%
    03:00 -1°C° 0.4 mm 1 mps 716 mmHg 89%
    04:00 -1°C° 0.4 mm 1 mps 715 mmHg 90%
    05:00 -1°C° 0.4 mm 1 mps 715 mmHg 92%
    06:00 -3°C° 0.7 mm 2 mps 715 mmHg 92%
    07:00 -3°C° 0.7 mm 2 mps 715 mmHg 92%
    08:00 -3°C° 0.7 mm 2 mps 715 mmHg 93%
    09:00 -2°C° 0.5 mm 2 mps 715 mmHg 92%
    10:00 -2°C° 0.5 mm 2 mps 715 mmHg 91%
    11:00 -1°C° 0.5 mm 2 mps 715 mmHg 90%
    12:00 -1°C° 0.4 mm 2 mps 715 mmHg 89%
    13:00 -1°C° 0.4 mm 2 mps 715 mmHg 89%
    14:00 -1°C° 0.4 mm 3 mps 715 mmHg 89%
    15:00 -1°C° 0.2 mm 3 mps 715 mmHg 88%
    16:00 -1°C° 0.2 mm 3 mps 716 mmHg 88%
    17:00 -2°C° 0.2 mm 3 mps 716 mmHg 87%
    18:00 -3°C° 0 mm 2 mps 717 mmHg 88%
    19:00 -4°C° 0 mm 2 mps 717 mmHg 89%
    20:00 -6°C° 0 mm 2 mps 718 mmHg 90%
    21:00 -6°C° 0 mm 2 mps 719 mmHg 89%
    22:00 -7°C° 0 mm 2 mps 719 mmHg 88%
    23:00 -8°C° 0 mm 2 mps 720 mmHg 87%

    1 March, Thursday

    Time Temperature Precipitation Wind Pressure Humidity
    00:00 -8°C° 0 mm 2 mps 720 mmHg 87%
    01:00 -9°C° 0 mm 2 mps 720 mmHg 86%
    02:00 -10°C° 0 mm 2 mps 721 mmHg 86%
    03:00 -10°C° 0 mm 2 mps 721 mmHg 84%
    04:00 -10°C° 0 mm 2 mps 721 mmHg 83%
    05:00 -10°C° 0 mm 2 mps 721 mmHg 81%
    06:00 -9°C° 0 mm 1 mps 722 mmHg 80%
    07:00 -8°C° 0 mm 1 mps 722 mmHg 79%
    08:00 -8°C° 0 mm 1 mps 723 mmHg 78%
    09:00 -4°C° 0 mm 1 mps 723 mmHg 74%
    10:00 -2°C° 0 mm 1 mps 723 mmHg 71%
    11:00 +1°C° 0 mm 1 mps 723 mmHg 67%
    12:00 +2°C° 0 mm 1 mps 722 mmHg 68%
    13:00 +2°C° 0 mm 1 mps 722 mmHg 69%
    14:00 +2°C° 0 mm 2 mps 721 mmHg 70%
    15:00 +3°C° 0 mm 1 mps 721 mmHg 73%
    16:00 +3°C° 0 mm 1 mps 721 mmHg 75%
    17:00 +3°C° 0 mm 1 mps 720 mmHg 78%
    18:00 +1°C° 0 mm 1 mps 720 mmHg 79%
    19:00 0°C° 0 mm 1 mps 720 mmHg 80%
    20:00 -1°C° 0 mm 1 mps 721 mmHg 81%
    21:00 -1°C° 0 mm 1 mps 720 mmHg 81%
    22:00 -1°C° 0 mm 1 mps 720 mmHg 82%
    23:00 -1°C° 0 mm 1 mps 720 mmHg 83%

    2 March, Friday

    Time Temperature Precipitation Wind Pressure Humidity
    00:00 -1°C° 0.2 mm 1 mps 720 mmHg 85%
    01:00 0°C° 0.2 mm 1 mps 720 mmHg 87%
    02:00 0°C° 0.2 mm 1 mps 720 mmHg 90%
    03:00 +1°C° 0.1 mm 1 mps 719 mmHg 90%
    04:00 +1°C° 0.1 mm 1 mps 719 mmHg 90%
    05:00 +1°C° 0.1 mm 1 mps 718 mmHg 90%
    06:00 +1°C° 0.1 mm 2 mps 718 mmHg 90%
    07:00 +1°C° 0.1 mm 2 mps 718 mmHg 90%
    08:00 +2°C° 0.1 mm 2 mps 718 mmHg 90%
    09:00 +3°C° 0.3 mm 2 mps 718 mmHg 91%
    10:00 +3°C° 0.3 mm 2 mps 718 mmHg 92%
    11:00 +4°C° 0.3 mm 2 mps 718 mmHg 93%
    12:00 +5°C° 0.4 mm 2 mps 717 mmHg 93%
    13:00 +5°C° 0.4 mm 2 mps 717 mmHg 93%
    14:00 +5°C° 0.4 mm 2 mps 716 mmHg 93%
    15:00 +5°C° 0.6 mm 2 mps 716 mmHg 93%
    16:00 +5°C° 0.6 mm 2 mps 716 mmHg 94%
    17:00 +5°C° 0.6 mm 2 mps 715 mmHg 95%
    18:00 +4°C° 0.3 mm 2 mps 715 mmHg 94%
    19:00 +4°C° 0.3 mm 2 mps 715 mmHg 93%
    20:00 +4°C° 0.3 mm 2 mps 715 mmHg 93%
    21:00 +4°C° 0.1 mm 2 mps 715 mmHg 93%
    22:00 +4°C° 0.1 mm 2 mps 715 mmHg 93%
    23:00 +4°C° 0.1 mm 2 mps 715 mmHg 93%
    Show more